Location: Arcadia
(34.1397°N, 118.0353°W)
Time: 23:12:10
(UTC+00:00)

Cosmos 540 Rocket - Pass Details

Date: 08 September 2024
Orbit: 737 x 749 km, 74.1° (Epoch: 13 October)

Event Time Altitude Azimuth Distance (km) Brightness Sun altitude
Rises 12:15:11 0° 347° (NNW) 3,179 6.8 -16.1°
Reaches altitude 10° 12:17:34 10° 350° (N) 2,254 6.0 -15.6°
Maximum altitude 12:22:37 62° 72° (ENE) 836 4.0 -14.6°
Drops below altitude 10° 12:27:40 10° 152° (SSE) 2,249 6.1 -13.6°
Sets 12:30:02 0° 156° (SSE) 3,171 6.8 -13.2°
